[Iaude] MPEC O102: 2024 OV [a=1.88,e=0.54,i=5.7,H=23.5]
    mpec at cfa.harvard.edu 
    mpec at cfa.harvard.edu
       
    Tue Jul 30 10:02:15 EDT 2024
    
    
  
M.P.E.C. 2024-O102                                Issued 2024 July 30, 14:00 UT
     The Minor Planet Electronic Circulars contain information on unusual
         minor planets, routine data on comets and natural satellites,
         and occasional editorial announcements.  They are published
    on behalf of Division F of the International Astronomical Union by the
          Minor Planet Center, Smithsonian Astrophysical Observatory,
                          Cambridge, MA 02138, U.S.A.
			  
             Prepared using the Tamkin Foundation Computer Network
                              MPC at CFA.HARVARD.EDU
            URL https://www.minorplanetcenter.net/    ISSN 1523-6714
                                    2024 OV                                     
Observations:
     K24O00V* C2024 07 28.44828122 35 05.415-13 47 31.73         20.74wXEO102F51
     K24O00V  C2024 07 28.47028522 34 57.943-13 47 01.50         20.76wXEO102F51
     K24O00V  C2024 07 28.48129922 34 54.184-13 46 46.06         20.88wXEO102F51
     K24O00V  C2024 07 28.55693222 34 28.401-13 44 59.80         20.89GVEO102F51
     K24O00V  C2024 07 28.55774822 34 28.137-13 44 58.50         20.55GVEO102F51
     K24O00V |C2024 07 29.14262022 31 31.060-13 30 40.80         20.6 GVEO102807
     K24O00V |C2024 07 29.14712022 31 29.630-13 30 35.40         20.8 GVEO102807
     K24O00V |C2024 07 29.15146022 31 28.260-13 30 30.10         20.9 GVEO102807
     K24O00V KC2024 07 29.30938522 30 38.65 -13 28 06.1          20.6 GVEO102H21
     K24O00V KC2024 07 29.31507722 30 36.83 -13 27 58.8          20.5 GVEO102H21
     K24O00V KC2024 07 29.31801622 30 35.88 -13 27 54.8          20.6 GVEO102H21
     K24O00V 3C2024 07 29.50339922 29 40.995-13 23 36.52         20.70GVEO102T14
     K24O00V 3C2024 07 29.50438022 29 40.682-13 23 35.24         20.64GVEO102T14
     K24O00V 3C2024 07 29.50535622 29 40.373-13 23 33.97         20.69GVEO102T14
     K24O00V !C2024 07 30.38951 22 25 28.03 -13 05 08.9          19.9 GVEO102673
     K24O00V !C2024 07 30.39318 22 25 26.96 -13 05 03.9                VEO102673
Observer details:
673 Table Mountain Observatory, Wrightwood.  Observer J. Pittichova.  1.0-m
    f/15 reflector + CCD.
807 Cerro Tololo Observatory, La Serena.  Observers T. Linder, R. Holmes.
    0.61-m f/6.8 Ritchey-Chretien + CCD.
F51 Pan-STARRS 1, Haleakala.  Observers J. Herman, T. Lowe, P. Minguez, A.
    Schultz, I. Smith.  Measurers K. Chambers, T. de Boer, J. Fairlamb, H.
    Gao, M. Huber, C.-C. Lin, E. Magnier, Y. Ramanjooloo, R. Wainscoat, R.
    Weryk.  1.8-m Ritchey-Chretien + CCD.
H21 Astronomical Research Observatory, Westfield.  Observer R. Holmes.
    Measurers T. Linder, R. Holmes.  0.81-m f/4.0 astrograph + CCD.
T14 Canada-France-Hawaii Telescope, Maunakea.  Observers R. Wainscoat, J.
    Silva, H. Flewelling.  Measurers R. Weryk, R. Wainscoat.  3.6-m f/4.1
    reflector + CCD.
Orbital elements:
2024 OV                                                  Earth MOID = 0.0386 AU
Epoch 2024 Oct. 17.0 TT = JDT 2460600.5                 MPC                     
M  52.97700              (2000.0)            P               Q                  
n   0.38218524     Peri.  281.90564     -0.54566605     +0.83499795             
a   1.8805582      Node   314.78633     -0.72472178     -0.51269087             
e   0.5409286      Incl.    5.73328     -0.42074565     -0.19981618             
P   2.58           H   23.56          G   0.15           U   8                  
Residuals in seconds of arc
240728 F51  0.2-  0.1+    240729 807  0.1-  0.1-    240729 T14  0.0   0.1-
240728 F51  0.1+  0.1-    240729 807  0.0   0.4-    240729 T14  0.0   0.1-
240728 F51  0.0   0.0     240729 H21  0.2+  0.2+    240730 673  0.2-  0.3-
240728 F51  0.2-  0.2-    240729 H21  0.0   0.0     240730 673  0.0   0.2+
240728 F51  0.0   0.0     240729 H21  0.2-  0.1+
240729 807  0.0   0.3+    240729 T14  0.0   0.1-
Ephemeris:
2024 OV                  a,e,i = 1.88, 0.54, 6                   q = 0.8633
Date    TT    R. A. (2000) Decl.     Delta      r    Elong.  Phase     V
2024 06 30    05 53 20.5 -15 15 50   0.08886 0.9501    39.9   136.7    24.6
...
2024 07 15    00 49 30.5 -22 00 58   0.07851 1.0441   108.6    67.3    20.5
...
2024 07 23    23 11 07.4 -16 25 36   0.1139  1.1019   137.0    39.0    20.6
...
2024 07 29    22 32 11.9 -13 34 16   0.1483  1.1474   151.1    25.3    20.9
2024 07 30    22 27 17.2 -13 12 30   0.1545  1.1551   153.1    23.4    20.9
2024 07 31    22 22 42.5 -12 52 22   0.1608  1.1629   155.1    21.6    21.0
...
2024 08 06    22 00 46.6 -11 19 37   0.2012  1.2100   165.4    12.2    21.2
...
2024 08 14    21 41 42.0 -10 07 14   0.2617  1.2740   175.4     3.6    21.5
...
2024 08 29    21 24 01.1 -09 07 34   0.3965  1.3949   163.6    11.8    23.0
A. U. Tomatic                (C) Copyright 2024 MPC           M.P.E.C. 2024-O102
    
    
More information about the Iaude
mailing list